Miscellaneous Local Product
Issued by NWS Hastings, NE

Home | Current Version | Previous Version | Graphics & Text | Print | Product List | Glossary On
Versions: 1 2 3 4 5 6 7 8 9 10 11 12 13 14 15 16 17 18 19 20 21 22 23 24 25 26 27 28 29 30 31 32 33 34 35 36 37 38 39 40 41 42 43 44 45 46 47 48 49 50
000
AXUS43 KGID 160302
MISGRI

GID CWA HOURLY WEATHER ROUNDUP
NATIONAL WEATHER SERVICE HASTINGS NE
1000 PM CDT MON SEP 15 2014

NOTE: "FAIR" INDICATES FEW OR NO CLOUDS BELOW 12,000 FEET WITH NO
SIGNIFICANT WEATHER AND/OR OBSTRUCTIONS TO VISIBILITY.

...SOUTH CENTRAL NEBRASKA...

CITY           SKY/WX    TMP DP  RH WIND       PRES   REMARKS
GRAND ISLAND   CLEAR     50  45  83 SE3       30.27R
HASTINGS       CLEAR     52  43  71 E3        30.27R
KEARNEY        CLEAR     48  43  81 NE8       30.26S
ORD            CLEAR     46  43  89 CALM      30.25R
YORK           CLEAR     48  45  87 E3        30.27R
AURORA         CLEAR     47  44  90 E5        30.27R
LEXINGTON      CLEAR     50  45  84 S3        30.26R
HOLDREGE       CLEAR     49  43  79 CALM      30.26R
HEBRON         CLEAR     49  44  84 CALM      30.27R

...NEBRASKA PANHANDLE...

CITY           SKY/WX    TMP DP  RH WIND       PRES   REMARKS
CHADRON        CLEAR     60  45  57 S9        30.13F
ALLIANCE       CLEAR     51  44  77 SE10      30.20R
SCOTTSBLUFF    CLEAR     56  47  71 E12       30.17S
SIDNEY         CLEAR     56  45  66 S13       30.24R

...WESTERN AND NORTH CENTRAL NEBRASKA...

CITY           SKY/WX    TMP DP  RH WIND       PRES   REMARKS
VALENTINE      CLEAR     50  40  68 S7        30.21S
AINSWORTH      CLEAR     44  39  84 SE5       30.23S
ONEILL         CLEAR     50  44  77 SE5       30.25S
BROKEN BOW     CLEAR     44  41  89 CALM      30.25R
IMPERIAL       CLEAR     51  45  79 SE7       30.25S
NORTH PLATTE   CLEAR     46  43  89 SE7       30.24S
MCCOOK         CLEAR     53  45  74 E6        30.26R

...EASTERN NEBRASKA...

CITY           SKY/WX    TMP DP  RH WIND       PRES   REMARKS
NORFOLK        CLEAR     46  42  86 S5        30.26S
SO SIOUX CITY  CLEAR     46  44  93 CALM      30.26R
TEKAMAH        CLEAR     48  45  89 NW3       30.26R
ALBION         CLEAR     45  41  87 CALM      30.27R
OMAHA EPPLEY   CLEAR     53  49  86 CALM      30.27R
OFFUTT AFB     CLEAR     47  47 100 NE2       30.26R
MILLARD        CLEAR     51  48  92 CALM      30.26R
LINCOLN        CLEAR     52  45  77 N3        30.27R
NEBRASKA CITY  CLEAR     51  41  68 CALM      30.26S
BEATRICE       CLEAR     50  45  84 E3        30.27R
FALLS CITY     CLEAR     52  47  83 N3        30.25R

...NORTHERN KANSAS...

CITY           SKY/WX    TMP DP  RH WIND       PRES   REMARKS
GOODLAND       CLEAR     53  50  89 S8        30.29R
HILL CITY      CLEAR     51  44  77 NE3       30.26R
NORTON         CLEAR     54  41  62 E3        30.25S
PHILLIPSBURG   CLEAR     55  45  67 NE6       30.26R
SMITH CENTER   CLEAR     52  45  76 NE8       30.26S
BELOIT         CLEAR     54  46  76 NE6       30.25R
HAYS           CLEAR     55  46  71 NE9       30.25R
RUSSELL        CLEAR     55  48  77 NE7       30.24R
CONCORDIA      CLEAR     54  47  77 NE3       30.25R
SALINA         CLEAR     63  50  62 NE8       30.24R
TOPEKA         CLEAR     56  52  86 N3        30.24R



USA.gov is the U.S. government's official web portal to all federal, state and local government web resources and services.